{"data":{"norad_id":63107,"epoch":"2026-05-24T23:19:39.453888Z","epoch_age_seconds":88116,"freshness":"FRESH","line1":"1 63107U 25039D   26144.97198442  .00176535  00000+0  13458-2 0  9996","line2":"2 63107  43.0016 136.9563 0001761 247.0092 113.0590 15.70918875 71610","mean_motion":15.70918875,"eccentricity":0.0001761,"inclination_deg":43.0016,"raan_deg":136.9563,"arg_perigee_deg":247.0092,"mean_anomaly_deg":113.059,"bstar":0.0013458,"rev_number":7161,"period_min":91.66609574285,"perigee_km":355.08370248177,"apogee_km":357.45556049738,"semimajor_km":6734.4066314896,"source":"CELESTRAK","updated_at":"2026-05-25T13:38:19.882538Z"}}